#timestamp,LO_Frequency,Hit,StdDev 
1548475215.3,286047008.9,N
1548475235.1,286046995.7,N
1548475255.9,286046997.9,N
1548475275.7,286046988.5,N
1548475295.5,286046989.3,N
1548475315.4,286046991.4,N
1548475335.2,286046996.7,N
1548475355.0,286047001.4,N
1548475355.9,286047001.4,N
1548475375.8,286047001.2,N
1548475395.6,286046999.8,N
1548475415.5,286047001.7,N
1548475435.3,286046994.2,N
1548475455.1,286046992.7,N
1548475475.9,286046990.3,N
1548475495.7,286047002.1,N
1548475515.6,286047003.5,N
1548475535.4,286047007.4,N
1548475555.2,286046999.4,N
1548475575.1,286046999.2,N
1548475576.0,286046999.2,N
1548475595.8,286047001.6,N
1548475615.6,286047008.6,N
1548475635.5,286047002.8,N
1548475655.3,286047003.8,N
1548475675.2,286047010.2,N
1548475695.9,286046997.0,N
1548475715.7,286046997.4,N
1548475735.6,286046998.7,N
1548475755.4,286046993.9,N
1548475775.2,286047004.6,N
1548475795.1,286046998.0,N
1548475796.0,286046998.0,N
1548475815.8,286046987.7,N
1548475835.7,286046993.6,N
1548475855.5,286047006.0,N
1548475875.3,286047003.2,N
1548475895.2,286047001.6,N
1548475915.0,286047004.0,N
1548475915.9,286047004.0,N
1548475935.8,286046998.5,N
1548475955.6,286046992.1,N
1548475975.4,286046986.5,N
1548475995.3,286046989.7,N
1548476015.1,286046986.3,N
1548476035.9,286046977.6,Y
1548476055.7,286046986.5,P
1548476075.5,286046996.3,N
1548476095.4,286046999.0,N
1548476115.2,286046996.6,N
1548476135.0,286047005.7,N
1548476135.9,286047005.7,N
1548476155.8,286047012.4,N
1548476175.6,286047014.8,N
1548476195.5,286046997.8,N
1548476215.3,286047004.4,N
1548476235.1,286047000.9,N
1548476255.9,286047006.8,N
1548476275.7,286047013.6,N
1548476295.6,286047012.8,N
1548476315.4,286047012.2,N
1548476335.2,286047008.1,N
1548476355.1,286047010.8,N
1548476356.0,286047010.8,N
1548476375.8,286047001.3,N
1548476395.7,286046998.2,N
1548476415.5,286047000.6,N
1548476435.3,286046992.0,N
1548476455.2,286047001.1,N
1548476475.0,286046990.1,N
1548476475.9,286046990.1,N
1548476495.8,286046992.4,N
1548476515.6,286046978.7,N
1548476535.4,286046986.5,N
1548476555.3,286046985.1,N
1548476575.1,286046974.5,N
1548476595.8,286046969.6,N
1548476615.7,286046980.1,N
1548476635.5,286046985.4,N
1548476655.4,286046988.1,N
1548476675.2,286046988.0,N
1548476695.1,286046985.2,N
1548476696.0,286046985.2,N
1548476715.8,286046980.9,N
1548476735.6,286046991.5,N
1548476755.5,286046978.6,N
1548476775.3,286046984.8,N
1548476795.2,286046987.8,N
1548476815.9,286046984.4,N
1548476835.7,286046972.5,N
1548476855.6,286046968.7,N
1548476875.4,286046971.4,N
1548476895.3,286046977.2,N
1548476915.1,286046973.4,N
1548476935.8,286046978.3,N
1548476955.7,286046977.3,N
1548476975.5,286046972.8,Y
1548476995.4,286046987.5,P
1548477015.2,286046995.9,N
1548477035.1,286047001.4,N
1548477036.0,286047001.4,N
1548477055.8,286046993.4,N
1548477075.6,286046993.1,N
1548477095.5,286046991.5,N
1548477115.3,286046990.9,N
1548477135.2,286046994.5,N
1548477155.9,286046985.0,N
1548477175.7,286046991.7,N
1548477195.6,286046994.5,N
1548477215.4,286046990.2,N
1548477235.2,286046984.3,Y
1548477255.1,286046994.1,P
1548477256.0,286046994.1,P
1548477275.8,286046992.2,P
1548477295.7,286047001.2,N
1548477315.5,286047000.7,N
1548477335.3,286047003.6,N
1548477355.2,286047007.0,N
1548477375.0,286047001.2,N
1548477375.9,286047001.2,N
1548477395.8,286047001.9,N
1548477415.6,286046990.6,N
1548477435.4,286046991.1,N
1548477455.3,286046994.1,N
1548477475.1,286046980.7,Y
1548477495.8,286046980.1,P
1548477515.7,286046994.1,N
1548477535.5,286046994.8,N
1548477555.4,286046992.9,N
1548477575.2,286046987.2,N
1548477595.0,286046978.4,Y
1548477595.9,286046978.4,P
1548477615.8,286046988.9,N
1548477635.6,286046994.4,N
1548477655.5,286046989.6,N
1548477675.3,286046990.5,N
1548477695.1,286047000.3,N
1548477715.9,286047004.9,N
1548477735.7,286046999.9,N
1548477755.6,286046995.1,N
1548477775.4,286047002.9,N
1548477795.2,286046994.0,N
1548477815.1,286047000.4,N
1548477816.0,286047000.4,N
1548477835.8,286046990.2,N
1548477855.7,286046994.9,N
1548477875.5,286047000.3,N
1548477895.3,286047004.8,N
1548477915.2,286047002.9,N
1548477935.9,286047004.8,N
1548477955.7,286047000.3,N
1548477975.6,286047001.0,N
1548477995.4,286047011.9,N
1548478015.3,286047004.9,N
1548478035.1,286046994.6,N
1548478036.0,286046994.6,N
1548478055.8,286046995.2,N
1548478075.7,286046995.4,N
1548478095.5,286046997.8,N
1548478115.3,286046989.5,N
1548478135.2,286046986.6,N
1548478155.0,286046975.7,Y
1548478155.9,286046975.7,P
1548478175.8,286046980.7,N
1548478195.6,286046989.0,N
1548478215.4,286046995.7,N
1548478235.3,286047004.2,N
1548478255.1,286047006.3,N
1548478275.9,286047002.9,N
1548478295.7,286047001.0,N
1548478315.5,286047006.2,N
1548478335.4,286047002.7,N
1548478355.2,286047004.8,N
1548478375.0,286047004.3,N
1548478375.9,286047004.3,N
1548478395.8,286047007.6,N
1548478415.6,286047003.6,N
1548478435.5,286047006.1,N
1548478455.3,286047001.9,N
1548478475.1,286047010.3,N
1548478495.9,286047018.7,N
1548478515.7,286047017.6,N
1548478535.6,286047023.0,N
1548478555.4,286047021.2,N
1548478575.2,286047006.1,N
1548478595.1,286047004.3,N
1548478596.0,286047004.3,N
1548478615.8,286047005.8,N
1548478635.6,286046999.1,N
1548478655.5,286047001.3,N
1548478675.3,286046996.1,N
1548478695.2,286046999.0,N
1548478715.9,286046991.9,N
1548478735.7,286046999.5,N
1548478755.6,286046992.0,N
1548478775.4,286046988.3,N
1548478795.2,286046987.2,N
